Погода в Оймяконе

Погода в Оймяконе : погода сейчас, прогноз погоды и архив. Всё, что Вы хотите узнать о погоде в Оймяконе!

Хотите узнать прогноз погоды в Оймяконе? Тогда Вам сюда: Погода в Оймяконе

Поиск расширенной информации на нашем сайте:

Другие новости

Новости СМИ2

Главная страница сайта

Новости сайта

03.07.2017

Напоминаем, что на нашем специализированном сайте Метеоцентр.Азия вы можете получить высокодетализированные автоматические прогнозы погоды по пунктам России, СНГ и мира в авиационном формате (включающие направление и скорость ветра, видимость, явления погоды, количество и форму облачности, нижнюю и верхнюю границу облачности).

Рекомендуем: Заливка фундамента в Калуге облицовка камнем фундамента дома Калуга.

Погода в Оймяконе - сегодня

Время (UTC), дата Ветер
(°,м/с) 
Видим.   Явления Облачность Т
(°С)
Тd
(°С)
f(%) Тe
(°С)
Pmin
(гПа)
dP
(гПа)
Po
(мм)
O2
(г/м3)
Тmin Tmax R s Состояние
почвы
06 12.12.17 тихо ()   20000 м    10/0 средняя, верхняя 
[Ac As|Cs]
-38.3 -40.9 76 -38  1048.8  -0.1  707  333           
09 12.12.17 020 (С) 20000 м  слаб. снег  10/0 средняя, верхняя 
[Ac As|Cs]
-38 -40.9 74 -39  1049  0.3  707  333    -37.7  0.0     
12 12.12.17 030 (СВ) 20000 м  {снег}  10/0 средняя, верхняя 
[Ac trans|Cs]
-38.2 -40.3 80 -39  1048.8  -0.1  707  333           
15 12.12.17 тихо ()   10 км  слаб. снег  10/0 средняя, верхняя 
[Ac trans|Cs]
-37 -39.1 81 -37  1047.8  -0.5  707  331           
18 12.12.17 тихо ()   20000 м  {снег}  8/0 средняя, верхняя 
[Ac trans|Ci fib]
-39.5 -41.6 80 -40  1048.9  -0.1  707  335           
21 12.12.17 тихо ()   20000 м    8/0 средняя, верхняя 
[Ac trans|Ci fib]
-38.1 -40.3 80 -38  1047.8  -0.3  706  333  -39.6    0.2  21  равномерный
сухой снег
100% 
00 13.12.17 тихо ()   20000 м  слаб. снег  9/8 900 м средняя, верхняя 
[Sc|Ac trans|Ci fib]
-36 -38.4 79 -36  1046.7  -0.2  706  330           
03 13.12.17 040 (СВ) 10 км  слаб. снег  10/10 450 м 
[St]
-35.1 -37.4 79 -36  1044.7  -1.3  705  328           
06 13.12.17 030 (СВ) 4000 м  слаб. снег  10/6 600 м верхняя 
[St|Cs]
-35.3 -37.7 78 -36  1044.5  -0.5  705  328           
09 13.12.17 020 (С) 20000 м  слаб. снег  10/10 600 м 
[St]
-35.1 -37.4 79 -36  1043.4  -0.7  704  328    -34.9  0.2     
12 13.12.17 040 (СВ) 20000 м  слаб. снег  10/10 600 м 
[St]
-34.5 -36.7 80 -35  1042.3  -0.8  704  326           
15 13.12.17 040 (СВ) 20000 м  слаб. снег  10/10 600 м 
[St]
-34.4 -36.7 80 -35  1041.3  -0.9  703  326           
18 13.12.17 050 (СВ) 20000 м  слаб. снег  10/10 600 м 
[St]
-34.1 -36.4 80 -35  1039.8  -1.1  702  325           
21 13.12.17 040 (СВ) 20000 м  слаб. снег  8/3 1000 м средняя, верхняя 
[Sc|Ac trans|Cs]
-34.8 -37 80 -39  1040  -0.3  702  326  -35.1    0.7  21  равномерный
сухой снег
100% 
00 14.12.17 040 (СВ) 20000 м  слаб. снег  8/3 1000 м средняя, верхняя 
[Sc|Ac trans|Cs]
-35.8 -38 80 -37  1039.6  -0.7  701  327  -36         
03 14.12.17 030 (СВ) 20000 м  слаб. снег  8/1 1000 м средняя, верхняя 
[Sc|Ac trans|Ci fib]
-37.4 -39.5 81 -38  1040.1  -0.2  701  329           
06 14.12.17 270 (З) 20000 м  {снег}  6/1 1000 м верхняя 
[Sc|Ci fib]
-43.1 -44.9 82 -44  1042.6  -0.1  701  337           
09 14.12.17 200 (Ю) 20000 м    3/0 верхняя 
[Ci fib]
-45 -47.1 79 -46  1042.8  -0.7  701  340    -34.5  0.2     
12 14.12.17 тихо ()   20000 м  ледяные иглы  3/0 верхняя 
[Ci fib]
-46.7 -48.9 78 -47  1043.1  -0.5  700  342           
15 14.12.17 200 (Ю) 20000 м  ледяные иглы  8/0 верхняя 
[Ci fib]
-45.9 -48 79 -47  1040.6  -2  699  340           
18 14.12.17 180 (Ю) 20000 м    4/0 верхняя 
[Ci fib]
-43.2 -46.1 73 -45  1036.9  -2  697  336           
21 14.12.17 040 (СВ) 20000 м  слаб. снег  10/0 средняя 
[Ac As]
-42 -44.3 78 -43  1034.2  -2  696  333  -46.8    0.0  22  равномерный
сухой снег
100% 
00 15.12.17 300 (СЗ) 20000 м  слаб. снег  10/0 средняя 
[Ac As]
-38.7 -40.7 81 -40  1030.9  -1.4  695  328           
03 15.12.17 тихо ()   10 км  слаб. снег  10/0 средняя, верхняя 
[Ac As|Ci fib]
-36.8 -39.1 79 -37  1028.8  -1.3  694  325           
06 15.12.17 тихо ()   20000 м  слаб. снег  10/0 средняя, верхняя 
[Ac As|Cs]
-36 -38.4 79 -36  1027.3  -0.9  693  324           
Время (UTC), дата Ветер
(°,м/с) 
Видим.   Явления Облачность Т
(°С)
Тd
(°С)
f(%) Тe
(°С)
Pmin
(гПа)
dP
(гПа)
Po
(мм)
O2
(г/м3)
Тmin Tmax R s Состояние
почвы

Для получения пояснительной информации подведите курсор к названию столбца.

ПОГОДА в Оймяконе - архив

Всё, что Вы хотите узнать о погоде в Оймяконе - удобно и подробно!

Выберите нужную дату (начиная с 1 января 2015* года) и нажмите кнопку "Найти".
Будут отображены архивные сводки погоды по пункту Оймякон, начиная с указанной даты.


Отображать данные в формате CSV (для использования в таблицах Excel)


Внимание! Наш архив погоды предназначен исключительно для личного некоммерческого использования в познавательных целях. Если Вам необходимы официальные справки о состоянии погоды (для производственных, юридических, коммерческих и т.п. целей), обращайтесь в органы Росгидромета.

*Примечание: данная дата относится к архиву по метеостанциям СССР (Россия, СНГ, Балтия).
Архив по метеостанциям Зарубежной Европы и Азии (кроме Китая) хранится 10 дней, по другим регионам земного шара (Китай, Африка, Америка, Австралия, Океания) - 1 день.

Оймякон - район местоположения метеостанции


Название, широта, долгота, высота метеостанции:
Оймякон 63.2°ш. 143.2°д. 741 м над ур. моря [Российская Федерация]

Дополнительная информация

В oтличие oт бoльшинства пoгoдных сайтoв мы публикуем пoдрoбную метеoинфoрмацию в детальнoм прoфессиoнальнoм фoрмате.

Характеристики температуры и влажнoсти вoздуха измеряются на высoте 2 м в тени вдали oт зданий и деревьев.
Скoрoсть ветра измеряется на высoте 10 м (на урoвне рoста челoвека скoрoсть ветра ниже в 1.5-2 раза). Если метеoстанция нахoдится в гoрoде или в лесу, тo скoрoсть ветра занижена на 2-4 м/с пo сравнению с oткрытым местoм. Скoрoсть ветра над акватoриями крупных рек и oзёр, а также на вершинах хoлмoв на 2-5 м/с выше, чем в oбычных услoвиях.
Атмoсфернoе давление в разных тoчках местнoсти мoжет значительнo oтличаться oт давления на метеoстанции, в зависимoсти oт услoвий рельефа (при пoдъёме на 10 м давление пoнижается примернo на 1 мм рт.ст.).